Regional Weather Roundup
Issued by NWS

Home | Current Version | Previous Version | Text Only | Print | Product List | Glossary Off
Versions: 1 2 3 4 5 6 7 8 9 10 11 12 13 14 15 16 17 18 19 20 21 22 23 24 25 26 27 28 29 30 31 32 33 34 35 36 37 38 39 40 41 42 43 44 45 46 47 48 49 50

000
ASUS43 KMPX 201410
RWRMN
WEATHER ROUNDUP FOR MINNESOTA
NATIONAL WEATHER SERVICE TWIN CITIES/CHANHASSEN MN
800 AM CST FRI JAN 20 2017


NOTE: "FAIR" INDICATES FEW OR NO CLOUDS BELOW 12,000 FEET WITH NO
SIGNIFICANT WEATHER AND/OR OBSTRUCTIONS TO VISIBILITY. N/A MEANS
CURRENT SKY AND/OR WEATHER CONDITIONS ARE NOT AVAILABLE.

MNZ060>063-068>070-201500-
   Twin Cities Metro

CITY           SKY/WX    TMP DP  RH WIND       PRES   REMARKS
TWIN CITIES    DRIZZLE   35  33  92 SE7       29.62S FOG     WCI  29
ST PAUL        CLOUDY    35  35 100 SE6       29.64S FOG     WCI  30
CRYSTAL        CLOUDY    35  33  92 SE6       29.61S FOG     WCI  30
BLAINE         CLOUDY    37  37 100 SE6       29.62S FOG
LAKEVILLE      CLOUDY    34  34 100 CALM      29.61F FOG
EDEN PRAIRIE   CLOUDY    35  34  96 SE8       29.60S FOG     WCI  29
SOUTH ST PAUL  CLOUDY    35  35  99 CALM      29.63S FOG
LAKE ELMO      CLOUDY    36  36 100 E3        29.64S FOG
$$
MNZ001>005-007-008-013>017-022>024-027-028-201500-
   Northwest Minnesota

CITY           SKY/WX    TMP DP  RH WIND       PRES   REMARKS
BEMIDJI        FOG       33  33 100 SE3       29.57F VSB 3/4
HALLOCK        CLOUDY    36  34  93 SE13      29.51R FOG
ROSEAU         CLOUDY    36  30  80 SE7       29.56S HAZE
WARROAD        CLOUDY    36  30  80 SE7       29.57S FOG
THIEF RVR FALL CLOUDY    34  34 100 SE14      29.55S WCI  25
CROOKSTON      CLOUDY    36  34  93 SE10      29.54S
FOSSTON        CLOUDY    34  32  93 E7        29.55S FOG     WCI  28
DETROIT LAKES  CLOUDY    34  34 100 SE9       29.54F FOG     WCI  26
MOORHEAD       CLOUDY    34  34 100 SE8       29.53F FOG     WCI  27
PARK RAPIDS    CLOUDY    34  31  88 E6        29.56S FOG     WCI  29
MAHNOMEN       CLOUDY    34  33  96 SE8       29.54S WCI  27
$$
MNZ006-009>011-018-025>026-201500-
   North Central Minnesota

CITY           SKY/WX    TMP DP  RH WIND       PRES   REMARKS
BAUDETTE       FOG       34  33  96 SE6       29.58F VSB 1/2 WCI  29
FLAG ISLAND    CLOUDY    34  34 100 SE13      29.57S FOG     WCI  25
INTL FALLS     CLOUDY    33  32  96 E3        29.62S FOG
WASKISH        CLOUDY    36  34  93 SE5       29.59S FOG
BIG FORK       FOG       34  32  93 CALM      29.62R VSB 1
LONGVILLE      FOG       34  34 100 CALM      29.60R VSB 1/2
GRAND RAPIDS   MIX PCPN  32  32 100 E5        29.63S VSB 1/2 WCI  27
CRANE LAKE     CLOUDY    28  28 100 CALM      29.66S FOG
ORR            CLOUDY    32  30  93 CALM      29.61S FOG
COOK           CLOUDY    30  30 100 CALM      29.65R FOG
WALKER         DRZL/FOG  32  32 100 E3        29.58S VSB 3/4
$$
MNZ012-019>021-037-201500-
   Northeast Minnesota

CITY           SKY/WX    TMP DP  RH WIND       PRES   REMARKS
DULUTH         CLOUDY    35  33  92 SE9       29.64S WCI  28
ELY            FOG       21  19  93 CALM      29.66R VSB<1/4
HIBBING        FOG       31  31 100 E3        29.63S VSB 1/2
EVELETH        CLOUDY    30  29  97 NE3       29.65F FOG
DULUTH HARBOR  MIX PCPN  34  34 100 CALM      29.68S VSB 1/2
TWO HARBORS    CLOUDY    36  30  80 CALM      29.66S HAZE
SILVER BAY     CLOUDY    28  28 100 CALM      29.67R FOG
GRAND MARAIS     N/A     30  30 100 CALM      29.71R
G MARAIS ARPRT CLOUDY    27  23  86 N3        29.66S FOG
$$
MNZ029>031-032-039>041-046>048-054>057-064-201500-
   West Central Minnesota

CITY           SKY/WX    TMP DP  RH WIND       PRES   REMARKS
FERGUS FALLS   CLOUDY    34  34 100 SE9       29.57S FOG     WCI  26
WHEATON        CLOUDY    41  41 100 SE9       29.54S FOG
MORRIS         FOG       34  34 100 SE10      29.52F VSB 1   WCI  26
ALEXANDRIA     CLOUDY    33  33 100 E9        29.55S FOG     WCI  25
ELBOW LAKE     CLOUDY    33  33 100 SE7       29.53F FOG     WCI  27
WADENA         CLOUDY    32  32 100 E7        29.56S FOG     WCI  26
GLENWOOD       FOG       34  34 100 E6        29.55S VSB 3/4 WCI  29
APPLETON       CLOUDY    36  34  93 SE8       29.53F FOG
BENSON         CLOUDY    36  32  87 S9          N/A
ORTONVILLE     CLOUDY    34  30  86 SE12      29.51F FOG     WCI  25
MADISON        CLOUDY    36  36 100 SE10      29.52F FOG
WILLMAR        CLOUDY    34  34 100 SE8       29.56F FOG     WCI  27
$$
MNZ033>034-036-042>043-049>051-058-059-201500-
   Central Minnesota

CITY           SKY/WX    TMP DP  RH WIND       PRES   REMARKS
ST CLOUD       FOG       34  34 100 SE6       29.59S VSB 1   WCI  29
SAUK CENTRE    CLOUDY    32  32 100 E5        29.56S FOG     WCI  28
PAYNESVILLE    CLOUDY    33  33 100 E6        29.57F FOG     WCI  28
AITKIN         MIX PCPN  36  34  93 CALM      29.60R VSB 3/4
PINE RIVER     LGT RAIN  34  34 100 E5        29.63S WCI  30
BRAINERD       LGT RAIN  34  34 100 E3        29.59F FOG
STAPLES        CLOUDY    34  34 100 E3        29.57S FOG
LONG PRAIRIE   CLOUDY    32  32 100 E7        29.56F FOG     WCI  26
LITTLE FALLS   CLOUDY    32  32 100 E5        29.59S FOG     WCI  27
LITCHFIELD     FOG       36  34  93 SE7       29.58S VSB 1/2
BUFFALO        CLOUDY    34  33  96 E3        29.61S FOG
MAPLE LAKE     CLOUDY    35  35  99 MISG      29.60F FOG
HUTCHINSON     FOG       34  34 100 E7        29.59S VSB 1/2 WCI  28
$$
MNZ037-044-045-052-053-201500-
   East Central Minnesota

CITY           SKY/WX    TMP DP  RH WIND       PRES   REMARKS
PRINCETON      DRIZZLE   36  34  93 E3        29.62R
MORA           DRIZZLE   32  32 100 E3        29.64S
CAMBRIDGE      LGT RAIN  37  34  87 E3        29.61S
RUSH CITY      RAIN      34  34 100 SE5       29.64R WCI  30
MOOSE LAKE     CLOUDY    34  34 100 E3        29.62S FOG
HINCKLEY       DRIZZLE   36  36 100 E5        29.64S
CLOQUET        MIX PCPN  34  32  93 SE6       29.64R WCI  29
MCGREGOR       CLOUDY    34  34 100 E3        29.62S
$$
MNZ071>073-080-081-089-090-097-098-201500-
   Southwest Minnesota

CITY           SKY/WX    TMP DP  RH WIND       PRES   REMARKS
MONTEVIDEO     CLOUDY    34  34 100 S6        29.55F FOG     WCI  29
GRANITE FALLS  CLOUDY    35  34  99 SE7       29.56S FOG     WCI  29
CANBY          CLOUDY    35  35 100 CALM      29.53F FOG
MARSHALL       CLOUDY    34  34 100 SE8       29.53F FOG     WCI  27
REDWOOD FALLS  FOG       34  32  92 SE9       29.56F VSB 1   WCI  27
OLIVIA         FOG       34  34 100 SE7       29.55F VSB 3/4 WCI  28
PIPESTONE      CLOUDY    36  36 100 SE8       29.49F FOG
WINDOM         FOG       34  34 100 SE6       29.54F VSB 3/4 WCI  29
WORTHINGTON    FOG       33  33 100 SE8       29.53F VSB 1/4 WCI  26
JACKSON        FOG       32  32 100 S5        29.55S VSB 1/4 WCI  27
TRACY          CLOUDY    35  35 100 S6        29.53F FOG     WCI  30
SLAYTON        FOG       33  33 100 SE8       29.53S VSB 1/2 WCI  26
$$
MNZ065>067-074>077-082>085-091>093-201500-
   South Central Minnesota

CITY           SKY/WX    TMP DP  RH WIND       PRES   REMARKS
MANKATO        CLOUDY    34  34 100 S5        29.60S FOG     WCI  30
NEW ULM        CLOUDY    34  34 100 SE7       29.58R FOG     WCI  28
ST JAMES       CLOUDY    34  34 100 SE8       29.59S FOG     WCI  27
FAIRMONT       FOG       33  32  96 SE7       29.58S VSB 1/4 WCI  27
GLENCOE        FOG       34  34 100 E5        29.59S VSB 3/4 WCI  30
FARIBAULT      FOG       34  34 100 SE5       29.61F VSB 1   WCI  30
OWATONNA       CLOUDY    34  34 100 SE6       29.60F FOG     WCI  29
WASECA         FOG       32  32 100 SE6       29.61S VSB 3/4 WCI  26
ALBERT LEA     FOG       34  34 100 SE6       29.59S VSB<1/4 WCI  29
$$
MNZ078>079-086>088-094>096-201500-
   Southeast Minnesota

CITY           SKY/WX    TMP DP  RH WIND       PRES   REMARKS
ROCHESTER      FOG       33  33 100 SE7       29.61S VSB 1/4 WCI  27
RED WING       CLOUDY    36  34  93 SE5       29.64R FOG
STANTON        CLOUDY    36  34  93 CALM      29.61S FOG
DODGE CENTER   FOG       34  34 100 CALM      29.60F VSB 1/2
WINONA         CLOUDY    34  34 100 S3        29.65F FOG
AUSTIN         FOG       34  32  93 SE5       29.60S VSB 1   WCI  30
PRESTON        FOG       33  32  97 SE5       29.62S VSB 1   WCI  28
$$
ABBREVIATIONS USED IN REMARKS
   TC - TEMPERATURES IN CELSIUS
  WCI - WIND CHILL INDEX
   HX - HEAT INDEX
  VSB - VISIBILITY
$$



USA.gov is the U.S. government's official web portal to all federal, state and local government web resources and services.